Location: Leuk
(46.3174°N, 7.6341°E)
Time: 21:04:17
(UTC+00:00)

USA 234 - Pass Details

Date: 09 March 2021
Orbit: 1102 x 1105 km, 123.0° (Epoch: 18 April)

Event Time Altitude Azimuth Distance (km) Brightness Sun altitude
Rises 04:00:25 0° 156° (SSE) 3,907 6.3 -20.2°
Reaches altitude 10° 04:03:07 10° 164° (SSE) 2,952 5.5 -19.8°
Maximum altitude 04:09:03 37° 230° (SW) 1,650 3.7 -18.8°
Enters shadow 04:11:40 27° 273° (W) 1,976 4.0 -18.3°
